Change the Weather History Date:

Thursday, June 13, 2013

  Actual Average Record
Temperature  
Mean Temperature 66 °F 64 °F  
Max Temperature 78 °F 76 °F 98 °F (1959)
Min Temperature 53 °F 52 °F 32 °F (1969)
Degree Days  
Heating Degree Days 0 3  
Month to date heating degree days 55 61  
Since 1 June heating degree days 55 61  
Since 1 July heating degree days 6402 6747  
Cooling Degree Days 1 2  
Month to date cooling degree days 16 21  
Year to date cooling degree days 43 38  
Since 1 June cooling degree days 16 21  
Growing Degree Days 16 (Base 50)    
Moisture  
Dew Point 53 °F    
Average Humidity 63    
Maximum Humidity 86    
Minimum Humidity 40    
Precipitation  
Precipitation 0.28 in 0.07 in 2.27 in (2001)
Month to date precipitation 0.58 1.00  
Year to date precipitation 7.02 6.86  
Snow  
Snow 0.00 in 0.00 in T in (1991)
Month to date snowfall 0.0 0.0  
Since 1 June snowfall 0.0 0.0  
Since 1 July snowfall 40.4 55.0  
Snow Depth 0.00 in    
Sea Level Pressure  
Sea Level Pressure 29.84 in    
Wind  
Wind Speed 14 mph (West)    
Max Wind Speed 38 mph    
Max Gust Speed 51 mph    
Visibility 10 miles    
Events Rain , Thunderstorm    
T = Trace of Precipitation, MM = Missing Value Source: NWS Daily Summary

Daily Weather History Graph

Daily Weather History Graph

Search for Another Location

Airport or City:

Trip Planner

Search our weather history database for the weather conditions in past years. The results will help you decide how hot, cold, wet, or windy it might be!

Date:

Astronomy

Jun. 13, 2013 Rise Set
Actual Time 5:23 AM MDT 9:05 PM MDT
Civil Twilight 4:45 AM MDT 9:43 PM MDT
Nautical Twilight 3:54 AM MDT 10:34 PM MDT
Astronomical Twilight 2:44 AM MDT 11:45 PM MDT
Moon 10:15 AM MDT (6/13) 11:58 PM MDT (6/13)
Length of Visible Light 16h 58m
Length of Day
15h 41m
Waxing Crescent, 22% of the Moon is Illuminated
Jun 13
Waxing Crescent
Jun 16
First Quarter
Jun 23
Full
Jun 29
Last Quarter
Jul 8
New

Hourly Weather History & Observations

Time (MDT) Temp. Dew Point Humidity Pressure Visibility Wind Dir Wind Speed Gust Speed Precip Events Conditions
12:16 AM 64.0 °F 55.9 °F 75% 29.96 in 10.0 mi South 10.4 mph - N/A   Partly Cloudy
12:53 AM 64.9 °F 55.9 °F 73% 29.90 in 10.0 mi SSE 11.5 mph - N/A   Scattered Clouds
1:53 AM 63.0 °F 54.0 °F 72% 29.86 in 10.0 mi SSE 13.8 mph - N/A   Partly Cloudy
2:53 AM 63.0 °F 54.0 °F 72% 29.84 in 10.0 mi SW 9.2 mph - N/A   Partly Cloudy
3:53 AM 62.1 °F 55.0 °F 78% 29.85 in 10.0 mi South 10.4 mph - N/A   Partly Cloudy
4:53 AM 61.0 °F 54.0 °F 78% 29.84 in 10.0 mi SE 8.1 mph - N/A   Scattered Clouds
5:53 AM 57.0 °F 54.0 °F 89% 29.86 in 10.0 mi NE 4.6 mph - N/A   Scattered Clouds
6:53 AM 60.1 °F 55.0 °F 83% 29.82 in 10.0 mi South 6.9 mph - N/A   Scattered Clouds
7:53 AM 63.0 °F 55.0 °F 75% 29.79 in 10.0 mi SW 8.1 mph - N/A   Scattered Clouds
8:53 AM 66.0 °F 53.1 °F 63% 29.80 in 10.0 mi South 8.1 mph - N/A   Partly Cloudy
9:53 AM 70.0 °F 51.1 °F 51% 29.78 in 10.0 mi WSW 4.6 mph - N/A   Partly Cloudy
10:53 AM 75.0 °F 52.0 °F 44% 29.78 in 10.0 mi West 8.1 mph - N/A   Scattered Clouds
11:33 AM 72.0 °F 53.1 °F 51% 29.89 in 10.0 mi WSW 11.5 mph - N/A Thunderstorm Thunderstorm
11:40 AM 70.0 °F 52.0 °F 53% 29.92 in 7.0 mi West 32.2 mph 49.5 mph 0.00 in Thunderstorm Thunderstorms with Small Hail
11:41 AM 66.9 °F 52.0 °F 59% 29.92 in 1.0 mi West 38.0 mph 50.6 mph 0.00 in Rain , Thunderstorm Heavy Thunderstorms and Rain
11:51 AM 57.2 °F 51.8 °F 82% 29.92 in 7.0 mi West 31.1 mph 41.4 mph 0.11 in Thunderstorm Thunderstorm
11:53 AM 57.9 °F 51.1 °F 78% 29.86 in 10.0 mi West 27.6 mph 41.4 mph 0.12 in Thunderstorm Thunderstorm
12:10 PM 63.0 °F 52.0 °F 67% 29.91 in 10.0 mi West 17.3 mph 28.8 mph N/A   Scattered Clouds
12:23 PM 69.1 °F 51.1 °F 53% 29.87 in 10.0 mi NW 27.6 mph 44.9 mph N/A   Scattered Clouds
12:53 PM 73.9 °F 50.0 °F 43% 29.76 in 10.0 mi North 12.7 mph - N/A   Partly Cloudy
1:53 PM 73.9 °F 54.0 °F 50% 29.76 in 10.0 mi ENE 11.5 mph - N/A   Partly Cloudy
2:53 PM 77.0 °F 52.0 °F 42% 29.75 in 10.0 mi ENE 11.5 mph - N/A   Scattered Clouds
3:53 PM 75.9 °F 55.9 °F 50% 29.74 in 10.0 mi ENE 13.8 mph - N/A   Scattered Clouds
4:53 PM 75.9 °F 55.0 °F 48% 29.72 in 10.0 mi East 18.4 mph - N/A   Scattered Clouds
5:53 PM 75.0 °F 54.0 °F 48% 29.71 in 10.0 mi ESE 18.4 mph 25.3 mph N/A   Mostly Cloudy
6:53 PM 77.0 °F 54.0 °F 45% 29.71 in 10.0 mi East 15.0 mph - N/A   Scattered Clouds
7:17 PM 73.9 °F 57.0 °F 55% 29.83 in 10.0 mi North 18.4 mph 25.3 mph N/A   Mostly Cloudy
7:53 PM 62.1 °F 54.0 °F 75% 29.78 in 10.0 mi North 25.3 mph 32.2 mph 0.00 in   Scattered Clouds
8:53 PM 60.1 °F 50.0 °F 69% 29.77 in 10.0 mi North 21.9 mph - N/A   Scattered Clouds
9:44 PM 59.0 °F 48.9 °F 69% 29.87 in 10.0 mi NNW 8.1 mph - N/A Thunderstorm Thunderstorm
9:53 PM 60.1 °F 50.0 °F 69% 29.86 in 10.0 mi West 20.7 mph - N/A Thunderstorm Thunderstorm
10:08 PM 55.0 °F 50.0 °F 83% 29.99 in 4.0 mi West 27.6 mph 36.8 mph 0.04 in Rain , Thunderstorm Heavy Thunderstorms and Rain
10:53 PM 54.0 °F 50.0 °F 86% 29.84 in 10.0 mi NW 27.6 mph 38.0 mph 0.14 in Rain Light Rain
11:39 PM 54.0 °F 48.9 °F 83% 30.00 in 10.0 mi NW 26.5 mph 38.0 mph 0.01 in Rain , Thunderstorm Light Thunderstorms and Rain
11:53 PM 54.0 °F 48.0 °F 80% 29.94 in 10.0 mi NW 23.0 mph 35.7 mph 0.01 in Rain , Thunderstorm Light Thunderstorms and Rain